Weather History for KYKM - October, 2013

Change the Weather History Date:

Monday, October 28, 2013

  Actual Average Record
Temperature  
Mean Temperature 43 °F 44 °F  
Max Temperature 56 °F 58 °F 77 °F (2003)
Min Temperature 29 °F 31 °F 14 °F (1971)
Degree Days  
Heating Degree Days 22 21  
Month to date heating degree days 424 432  
Since 1 July heating degree days 549 640  
Moisture  
Dew Point 24 °F    
Average Humidity 48    
Maximum Humidity 69    
Minimum Humidity 26    
Precipitation  
Precipitation 0.00 in 0.02 in 1.01 in (1982)
Month to date precipitation 0.13 0.46  
Year to date precipitation 4.79 5.59  
Snow  
Snow 0.00 in 0.00 in 2.40 in (1991)
Month to date snowfall 0.0 0.1  
Year to date snowfall 1.1 8.7  
Since 1 July snowfall 0.0 0.1  
Snow Depth -    
Sea Level Pressure  
Sea Level Pressure 29.96 in    
Wind  
Wind Speed 11 mph (NNE)    
Max Wind Speed 28 mph    
Max Gust Speed 36 mph    
Visibility 10 miles    
Events      
T = Trace of Precipitation, MM = Missing Value Source: NWS Daily Summary

Daily Weather History Graph

Daily Weather History Graph

Search for Another Location

Airport or City:

Trip Planner

Search our weather history database for the weather conditions in past years. The results will help you decide how hot, cold, wet, or windy it might be!

Date:

Astronomy

Oct. 28, 2013 Rise Set
Actual Time 7:38 AM PDT 5:52 PM PDT
Civil Twilight 7:07 AM PDT 6:23 PM PDT
Nautical Twilight 6:31 AM PDT 6:59 PM PDT
Astronomical Twilight 5:56 AM PDT 7:34 PM PDT
Moon 1:15 AM PDT (10/28) 2:55 PM PDT (10/28)
Length of Visible Light 11h 16m
Length of Day
10h 13m
Waning Crescent, 33% of the Moon is Illuminated
Oct 28
Waning Crescent
Nov 3
New
Nov 9
First Quarter
Nov 17
Full
Nov 25
Last Quarter

Hourly Weather History & Observations

Time (PDT) Temp. Windchill Dew Point Humidity Pressure Visibility Wind Dir Wind Speed Gust Speed Precip Events Conditions
12:53 AM 52.0 °F - 33.1 °F 49% 29.94 in 10.0 mi NNE 11.5 mph 27.6 mph N/A   Overcast
1:53 AM 51.1 °F - 28.0 °F 41% 29.94 in 10.0 mi Variable 4.6 mph - N/A   Overcast
2:53 AM 48.9 °F - 28.9 °F 46% 29.96 in 10.0 mi North 3.5 mph - N/A   Overcast
3:53 AM 46.9 °F - 28.9 °F 50% 29.95 in 10.0 mi NE 12.7 mph - N/A   Overcast
4:53 AM 46.9 °F - 30.0 °F 52% 29.96 in 10.0 mi North 6.9 mph 18.4 mph N/A   Mostly Cloudy
5:53 AM 48.0 °F - 27.0 °F 44% 29.96 in 10.0 mi NNE 16.1 mph 26.5 mph N/A   Mostly Cloudy
6:53 AM 46.9 °F - 25.0 °F 42% 29.96 in 10.0 mi Variable 4.6 mph - N/A   Partly Cloudy
7:53 AM 46.9 °F - 24.1 °F 41% 29.97 in 10.0 mi NE 10.4 mph 28.8 mph N/A   Mostly Cloudy
8:53 AM 48.0 °F - 24.1 °F 39% 29.99 in 10.0 mi ENE 8.1 mph 25.3 mph N/A   Mostly Cloudy
9:53 AM 50.0 °F - 21.9 °F 33% 29.98 in 10.0 mi NE 19.6 mph 28.8 mph N/A   Scattered Clouds
10:53 AM 52.0 °F - 21.9 °F 31% 29.97 in 10.0 mi NE 19.6 mph 32.2 mph N/A   Partly Cloudy
11:53 AM 53.1 °F - 21.9 °F 30% 29.96 in 10.0 mi NNE 20.7 mph 32.2 mph N/A   Clear
12:53 PM 55.9 °F - 21.9 °F 27% 29.94 in 10.0 mi NE 16.1 mph 28.8 mph N/A   Mostly Cloudy
1:53 PM 54.0 °F - 21.0 °F 28% 29.92 in 10.0 mi NE 17.3 mph 27.6 mph N/A   Clear
2:53 PM 55.0 °F - 21.0 °F 27% 29.91 in 10.0 mi ENE 16.1 mph 24.2 mph N/A   Partly Cloudy
3:53 PM 55.0 °F - 21.0 °F 27% 29.91 in 10.0 mi ENE 15.0 mph - N/A   Partly Cloudy
4:53 PM 54.0 °F - 21.0 °F 28% 29.92 in 10.0 mi NE 13.8 mph 19.6 mph N/A   Clear
5:53 PM 52.0 °F - 21.0 °F 30% 29.93 in 10.0 mi NE 9.2 mph - N/A   Clear
6:53 PM 48.0 °F - 21.9 °F 36% 29.94 in 10.0 mi NNE 4.6 mph - N/A   Clear
7:53 PM 37.0 °F 33.3 °F 24.1 °F 59% 29.98 in 10.0 mi WSW 4.6 mph - N/A   Clear
8:53 PM 34.0 °F 26.0 °F 25.0 °F 70% 29.97 in 10.0 mi West 10.4 mph - N/A   Clear
9:53 PM 34.0 °F 28.0 °F 24.1 °F 67% 29.98 in 10.0 mi West 6.9 mph - N/A   Clear
10:53 PM 37.0 °F 33.3 °F 23.0 °F 57% 29.99 in 10.0 mi West 4.6 mph - N/A   Clear
11:53 PM 33.1 °F 28.7 °F 23.0 °F 66% 30.00 in 10.0 mi WSW 4.6 mph - N/A   Clear